Date/Time (UTC),ProbHail,ProbWind,ProbTor,MESH,VIL Density,Flash Rate,Max Flash Density,LJA sigma-level,Max 0-2km AzShear,LLAZ 98th%,MLAZ 98th%,MUCAPE,MLCAPE,CAPE -10C to -30C,MLCIN,SRH 0-1km AGL,EBShear,MeanWind 0-1km AGL,Norm. Sat. Growth Rate,PWAT,WBZ,AvgBeamHgt,size
2019/05/20 18:22,1,1,0,0.0,0.4,0,0.0,0.0,1,1,4,2778,1626,682,215,370,49.6,44.7,0.0,1.9,11.1,2.6,66
2019/05/20 18:24,1,1,0,0.0,0.6,1,0.04,0.0,2,2,3,2767,1567,685,229,375,49.8,44.7,0.0,1.9,11.1,2.6,89
2019/05/20 18:26,2,3,0,0.05,0.6,1,0.04,0.0,2,2,2,2757,1524,687,242,380,50.0,44.6,3.8,1.9,11.1,2.7,132
2019/05/20 18:28,2,3,0,0.05,0.7,1,0.05,0.0,2,2,3,2748,1462,691,262,389,50.5,44.5,3.8,1.9,11.1,2.7,99
2019/05/20 18:30,2,3,0,0.05,0.7,2,0.07,0.0,2,2,3,2744,1441,694,270,392,50.7,44.5,3.8,1.9,11.1,2.8,164
2019/05/20 18:32,2,3,0,0.07,0.8,2,0.07,0.0,2,2,2,2731,1375,699,288,398,50.9,44.4,3.8,1.9,11.1,2.9,86
2019/05/20 18:34,2,3,0,0.07,0.8,2,0.07,0.0,3,2,2,2722,1304,707,304,407,51.2,44.4,3.8,1.9,11.1,3.0,147
2019/05/20 18:36,2,3,0,0.07,0.8,2,0.07,0.0,3,2,3,2712,1219,714,304,416,51.8,44.3,3.8,1.8,11.1,3.1,79
2019/05/20 18:38,2,3,0,0.11,0.9,1,0.07,0.0,3,2,3,2713,1207,713,294,418,51.8,44.3,3.8,1.8,11.1,3.1,203
2019/05/20 18:40,2,6,3,0.11,0.9,2,0.09,0.0,13,4,2,2702,1134,716,273,426,52.0,44.3,3.8,1.8,11.1,3.3,239
2019/05/20 18:42,2,29,18,0.11,0.9,2,0.1,0.0,17,17,2,2696,1061,717,191,438,52.7,44.4,3.8,1.8,11.1,3.4,83
2019/05/20 18:44,2,29,18,0.09,0.8,2,0.1,0.0,17,17,3,2694,1046,717,170,440,52.8,44.4,3.8,1.8,11.1,3.5,74
2019/05/20 18:46,2,29,18,0.16,0.8,3,0.1,0.0,17,17,2,2678,933,712,114,443,52.5,44.4,3.8,1.8,11.1,3.5,218
2019/05/20 18:48,3,9,1,0.21,0.8,3,0.1,0.0,5,3,4,2669,868,709,88,446,52.1,44.4,3.8,1.8,11.1,3.5,228
2019/05/20 18:50,3,24,35,0.21,1.0,3,0.12,0.0,17,5,2,2651,694,701,22,448,53.3,44.7,3.8,1.8,11.1,3.5,117
2019/05/20 18:52,3,24,35,0.21,1.0,4,0.12,0.0,17,5,3,2651,694,701,22,448,53.3,44.7,3.8,1.8,11.1,3.5,117
2019/05/20 18:54,2,29,9,0.13,1.0,5,0.12,0.0,24,6,3,2680,1284,689,167,582,52.3,45.2,3.8,1.9,11.3,3.4,229
2019/05/20 18:56,3,34,14,0.31,1.0,5,0.12,0.0,18,9,3,2681,1139,689,127,584,52.2,44.9,3.8,1.9,11.5,3.4,255
2019/05/20 18:58,3,34,14,0.31,0.8,5,0.12,0.0,18,9,4,2674,1064,689,107,583,52.1,44.8,3.8,1.9,11.6,3.4,266
2019/05/20 19:00,3,34,18,0.31,0.8,5,0.13,0.0,18,9,4,2664,958,688,78,580,52.3,44.6,3.8,1.9,11.7,3.4,257
2019/05/20 19:02,2,10,11,0.23,0.7,4,0.13,0.0,17,5,4,2654,900,686,64,576,52.7,44.6,3.8,1.9,11.8,3.4,243
2019/05/20 19:04,2,32,68,0.22,1.0,4,0.13,0.0,31,25,4,2629,700,684,28,578,51.6,44.6,3.8,1.9,11.6,3.3,213
2019/05/20 19:06,2,32,68,0.09,1.0,4,0.13,0.0,31,25,5,2613,676,678,23,570,52.3,44.6,3.8,1.9,11.6,3.4,306
2019/05/20 19:08,2,47,82,0.09,1.0,4,0.13,0.0,31,25,11,2590,627,669,13,565,52.9,44.7,3.8,1.9,11.4,3.5,340
2019/05/20 19:10,2,50,88,0.21,1.0,4,0.13,0.0,26,17,13,2573,529,663,5,564,53.3,44.7,3.8,1.9,11.3,3.6,347
2019/05/20 19:12,2,54,86,0.21,1.0,4,0.13,0.0,26,17,15,2562,437,665,2,564,54.2,44.8,3.8,1.9,11.2,3.7,393
2019/05/20 19:14,2,54,86,0.21,1.0,4,0.13,0.0,24,16,13,2562,437,665,2,564,54.2,44.8,3.8,1.9,11.2,3.7,393
2019/05/20 19:16,3,54,84,0.17,1.0,3,0.13,0.0,18,11,13,2556,376,667,0,566,54.6,44.9,3.8,1.9,11.2,3.7,368
2019/05/20 19:18,3,50,73,0.17,1.3,3,0.13,0.0,27,9,3,2540,332,671,0,569,55.2,44.9,3.8,1.9,11.2,3.8,398
2019/05/20 19:20,3,52,70,0.24,1.3,3,0.13,0.0,27,9,3,2526,303,680,1,573,55.8,45.0,3.8,1.9,11.2,3.9,411
2019/05/20 19:22,3,52,60,0.24,1.3,6,0.13,0.0,27,9,12,2519,255,691,0,577,56.1,45.0,3.8,1.9,11.2,3.9,394
2019/05/20 19:24,3,41,33,0.24,0.9,6,0.16,0.0,12,7,13,2518,216,701,0,582,56.4,45.1,3.8,1.9,11.2,4.0,405
2019/05/20 19:26,3,47,49,0.22,1.0,6,0.16,0.0,15,9,12,2517,205,704,0,586,56.8,45.1,3.8,1.9,11.2,4.0,428
2019/05/20 19:28,3,44,58,0.11,1.0,6,0.16,0.0,27,23,4,2530,151,712,0,595,57.2,45.2,3.8,1.9,11.2,4.0,420
2019/05/20 19:30,3,44,44,0.12,1.0,5,0.16,0.0,27,23,5,2538,130,717,0,604,57.7,45.3,3.8,1.9,11.3,4.0,363
2019/05/20 19:32,2,29,20,0.12,0.9,2,0.16,0.0,27,23,3,2577,74,720,999,628,59.9,46.0,3.8,1.9,11.4,3.7,339
2019/05/20 19:34,2,29,20,0.12,0.9,2,0.16,0.0,24,17,3,2577,74,720,999,628,59.9,46.0,3.8,1.9,11.4,3.7,339
2019/05/20 19:36,2,29,20,0.09,0.9,1,0.16,0.0,20,14,2,2574,63,720,999,639,61.1,46.6,3.8,1.9,11.5,3.6,336
2019/05/20 19:38,2,36,20,0.09,0.9,1,0.16,0.0,18,13,7,2571,47,720,999,650,62.4,47.3,3.8,1.9,11.7,3.4,278
2019/05/20 19:40,2,32,12,0.07,0.8,1,0.16,0.0,13,12,7,2560,47,719,0,656,63.1,47.5,3.8,1.9,11.8,3.4,322
2019/05/20 19:42,2,32,6,0.06,0.8,1,0.16,0.0,11,9,2,2552,40,719,0,665,64.0,48.1,3.8,1.9,12.0,3.3,287
2019/05/20 19:44,2,33,6,0.04,0.8,1,0.16,0.0,11,9,2,2549,35,720,0,674,64.5,48.5,3.8,1.9,12.0,3.2,289
2019/05/20 19:46,2,29,2,0.0,0.6,1,0.16,0.0,9,6,7,2547,55,713,0,703,65.1,48.8,3.8,1.8,12.0,3.5,111
2019/05/20 19:48,2,20,1,0.0,0.6,1,0.16,0.0,6,4,3,2557,45,711,0,721,65.3,49.2,3.8,1.8,12.0,3.4,75
2019/05/20 19:50,2,20,1,0.0,0.6,1,0.16,0.0,6,4,3,2559,41,711,0,726,65.3,49.4,3.8,1.8,12.0,3.4,69
2019/05/20 19:52,2,5,1,0.0,0.8,1,0.16,0.0,4,4,2,2376,91,672,0,697,62.5,46.8,3.8,1.9,12.0,3.3,83
2019/05/20 19:54,2,2,0,0.0,0.8,0,0.16,0.0,2,2,3,2377,79,670,0,701,62.5,46.9,3.8,1.9,12.0,3.3,91
2019/05/20 19:56,2,2,0,0.0,0.8,0,0.06,0.0,2,2,2,2377,67,667,0,705,62.7,47.0,3.8,1.9,12.0,3.3,54
